[[{"header":{"parameterUnit":"m.s-1","parameterCategory":1,"la1":30.2991,"la2":30.254,"lo1":-89.0895,"lo2":-89.0444,"dy":0.0017,"dx":0.0017,"nx":28,"ny":28,"refTime":"2025-08-14T09:00:00:Z","depth":0,"parameterNumber":2,"parameterNumberName":"U-component_of_WINDS"},"data":[0,0,0,0,0,0,0,0,0,0,0,0,0,0,0,0,0,0,0,0,0,0,0,0,0,0,0,0,0,0,0,0,0,0,0,0,0,0,0,0,0,0,0,0,0,0,0,0,0,0,0,0,0,0,0,0,0,0,2.1833,2.1834,0,2.199,2.1992,2.1994,2.2039,2.2038,2.2038,2.2037,2.2197,2.2202,2.2207,0,0,0,0,0,0,0,0,0,0,0,0,0,2.1568,2.1573,2.1832,2.1834,2.1836,2.199,2.1992,2.1994,2.2039,2.2038,2.2037,2.2036,2.2195,2.2201,2.2207,0,0,0,0,0,0,0,0,0,0,0,0,0,2.17,2.1575,2.1832,2.1877,2.1883,2.199,2.1992,2.1995,2.204,2.2038,2.2037,2.2036,2.2193,2.22,2.2208,2.228,0,0,2.2231,2.2234,0,0,0,0,0,0,0,0,2.1693,2.171,2.1869,2.1875,2.1881,2.1994,2.1958,2.209,2.204,2.198,2.2037,2.2035,2.213,2.2143,2.2175,2.2288,2.2294,2.2232,2.2236,2.224,2.2242,0,0,0,0,0,0,0,2.1683,2.1703,2.1895,2.1871,2.1879,2.1889,2.1907,2.1983,2.206,2.1985,2.1989,2.2007,2.2133,2.2168,2.2179,2.2297,2.2232,2.2238,2.2243,2.2246,2.2475,2.2477,0,0,0,0,0,0,2.1667,2.1695,2.189,2.19,2.1782,2.1895,2.1914,2.1959,2.206,2.2074,2.2008,2.2009,2.2155,2.217,2.2185,2.2275,2.224,2.2247,2.2251,2.2474,2.2476,2.2477,0,0,0,0,0,0,2.1661,2.1684,2.1883,2.1799,2.1825,2.1901,2.195,2.1963,2.1997,2.2077,2.2091,2.2029,2.2155,2.2174,2.2256,2.2282,2.225,2.2257,2.2472,2.2474,2.2477,2.2457,0,0,0,0,0,0,2.1653,2.1681,2.171,2.1799,2.1829,2.1952,2.1952,2.1967,2.201,2.2013,2.21,2.2114,2.2156,2.2244,2.2264,2.2291,2.2263,2.247,2.2473,2.2476,2.2455,2.2458,2.246,0,0,0,0,0,2.1644,2.1698,2.1711,2.1734,2.1867,2.1954,2.1971,2.2018,2.2012,2.2041,2.2092,2.2111,2.2276,2.2252,2.2274,2.2305,2.2469,2.2472,2.2476,2.2454,2.2458,2.246,0,0,0,0,0,0,2.161,2.171,2.1726,2.1811,2.1874,2.1961,2.1999,2.202,2.2085,2.2085,2.2141,2.216,2.2237,2.228,2.2252,2.2379,2.2373,2.2381,2.2349,2.2353,2.2355,2.2343,2.2269,0,0,0,0,0,2.1612,2.1675,2.176,2.1826,2.1857,2.1922,2.1962,2.1993,2.206,2.2086,2.2144,2.2207,2.2273,2.2315,2.2381,2.2462,2.2481,2.2494,2.2496,2.2498,2.2504,2.2549,2.2555,2.2489,2.2489,2.2489,0,0,2.1618,2.1681,2.1717,2.1821,2.1873,2.1936,2.1944,2.2011,2.2058,2.2096,2.2177,2.2221,2.2295,2.2377,2.2416,2.2414,2.2526,2.2502,2.2503,2.2508,2.2553,2.2559,2.2565,2.2491,2.2491,2.249,0,0,2.166,2.1714,2.1775,2.1827,2.1906,2.1949,2.1964,2.2049,2.2079,2.2161,2.2191,2.2248,2.2361,2.2412,2.2453,2.2514,2.2533,2.2534,2.2547,2.259,2.2595,2.26,2.2621,2.2628,2.254,2.254,2.254,0,2.1656,2.1753,2.1804,2.1869,2.1913,2.1952,2.2013,2.2061,2.2157,2.2186,2.2184,2.2326,2.2379,2.2472,2.2487,2.252,2.2537,2.2524,2.259,2.2596,2.2601,2.2621,2.2629,2.2539,2.254,2.254,2.254,0,2.1745,2.1811,2.1851,2.1943,2.1992,2.2055,2.2114,2.2158,2.2185,2.2228,2.231,2.2375,2.2454,2.2479,2.2506,2.2576,2.2572,2.2579,2.2574,2.2606,2.2626,2.2634,2.2539,2.2539,2.2539,2.2539,0,0,2.1769,2.1888,2.1902,2.1944,2.2033,2.2086,2.215,2.2227,2.2263,2.2328,2.2382,2.2477,2.2484,2.253,2.2563,2.2601,2.2644,2.2604,2.2606,2.2608,2.2725,2.2718,2.2726,2.2658,2.266,2.2661,2.2718,0,2.1822,2.1939,2.1986,2.2081,2.2142,2.2179,2.2235,2.2296,2.2338,2.2396,2.2442,2.2508,2.2513,2.2541,2.258,2.2631,2.2668,2.2627,2.2708,2.2711,2.2687,2.2737,2.273,2.2781,2.2726,2.2728,2.2729,0,2.1899,2.1964,2.2065,2.2147,2.2174,2.2224,2.2298,2.2353,2.2422,2.245,2.2502,2.2533,2.2601,2.2591,2.2685,2.2656,2.2692,2.2722,2.2725,2.2733,2.2721,2.2746,2.2798,2.2805,2.2742,2.2741,2.274,0,2.1905,2.2018,2.2093,2.2128,2.2226,2.2259,2.2301,2.2369,2.2412,2.2477,2.2506,2.2577,2.2616,2.2671,2.272,2.2709,2.2809,2.2803,2.2833,2.2832,2.2852,2.2849,2.2909,2.2876,2.2876,2.2876,2.2876,0,2.1958,2.2018,2.2097,2.2143,2.2211,2.2265,2.233,2.2375,2.2435,2.2489,2.2526,2.2576,2.2638,2.2696,2.2735,2.2806,2.2824,2.2848,2.2857,2.2844,2.2841,2.2867,2.2865,2.2878,2.2878,2.2877,2.2877,0,2.1976,2.2032,2.2116,2.2201,2.2224,2.227,2.2343,2.2388,2.2432,2.2501,2.252,2.2588,2.2659,2.2713,2.2804,2.283,2.2905,2.2916,2.2882,2.2886,2.2912,2.2909,2.2991,2.3004,2.2963,2.2963,2.2963,0,2.2006,2.2053,2.2143,2.2183,2.2224,2.2288,2.2332,2.2386,2.2431,2.2513,2.2548,2.2621,2.2682,2.2792,2.2849,2.2919,2.2931,2.2955,2.2942,2.2927,2.293,2.2926,2.2931,2.2956,2.2957,2.2957,2.2957,0,2.2052,2.2077,2.214,2.2213,2.2265,2.2325,2.2385,2.2415,2.248,2.2528,2.26,2.2648,2.2741,2.2812,2.2888,2.293,2.2954,2.2961,2.2971,2.2957,2.2935,2.2946,2.2885,2.2958,2.2958,2.2958,2.2958,2.2958,2.2076,2.212,2.219,2.2259,2.231,2.2365,2.2412,2.2462,2.2523,2.2603,2.2632,2.2706,2.2773,2.2877,2.292,2.2978,2.2979,2.2995,2.2998,2.3001,2.2999,2.2927,2.2992,2.2992,2.2992,2.2992,2.2993,0,2.2124,2.2171,2.2234,2.2317,2.2371,2.2389,2.2457,2.25,2.2565,2.2626,2.2686,2.2768,2.2837,2.29,2.2972,2.3007,2.3019,2.3024,2.3021,2.303,2.2994,2.2978,2.3012,2.3012,2.3012,2.3012,2.3012,2.3012,2.2154,2.2228,2.2262,2.2361,2.2408,2.2481,2.2518,2.2569,2.2618,2.2708,2.2766,2.2807,2.2869,2.2945,2.3009,2.3026,2.305,2.3052,2.3071,2.3036,2.3033,2.303,2.3015,2.3057,2.3057,2.3102,2.3102,2.3103]},{"header":{"parameterUnit":"m.s-1","parameterCategory":1,"la1":30.2991,"la2":30.254,"lo1":-89.0895,"lo2":-89.0444,"dy":0.0017,"dx":0.0017,"nx":28,"ny":28,"refTime":"2025-08-14T09:00:00:Z","depth":0,"parameterNumber":3,"parameterNumberName":"V-component_of_WINDS"},"data":[0,0,0,0,0,0,0,0,0,0,0,0,0,0,0,0,0,0,0,0,0,0,0,0,0,0,0,0,0,0,0,0,0,0,0,0,0,0,0,0,0,0,0,0,0,0,0,0,0,0,0,0,0,0,0,0,0,0,3.8034,3.8033,0,3.8,3.8,3.8,3.7981,3.7981,3.7981,3.7981,3.7943,3.7942,3.7941,0,0,0,0,0,0,0,0,0,0,0,0,0,3.8077,3.8077,3.8034,3.8033,3.8033,3.8,3.8,3.8,3.7981,3.7981,3.7981,3.7981,3.7943,3.7942,3.7941,0,0,0,0,0,0,0,0,0,0,0,0,0,3.8053,3.8076,3.8034,3.802,3.8018,3.8001,3.8,3.7999,3.7981,3.7981,3.7981,3.7981,3.7943,3.7942,3.7941,3.7933,0,0,3.7936,3.7935,0,0,0,0,0,0,0,0,3.8054,3.8051,3.8022,3.8021,3.8019,3.7995,3.8001,3.7977,3.7981,3.7995,3.7981,3.7981,3.796,3.7957,3.7951,3.7931,3.7929,3.7936,3.7935,3.7934,3.7934,0,0,0,0,0,0,0,3.8056,3.8052,3.802,3.8022,3.802,3.8014,3.801,3.7997,3.7978,3.7994,3.7993,3.7989,3.7959,3.7952,3.795,3.7929,3.7936,3.7935,3.7934,3.7933,3.79,3.79,0,0,0,0,0,0,3.806,3.8054,3.8021,3.8019,3.8037,3.8013,3.8009,3.8003,3.7978,3.7975,3.7989,3.7988,3.7955,3.7952,3.7948,3.7937,3.7934,3.7933,3.7932,3.79,3.79,3.79,0,0,0,0,0,0,3.8061,3.8058,3.8023,3.8036,3.8031,3.8013,3.8005,3.8002,3.7995,3.7975,3.7971,3.7986,3.7955,3.795,3.7937,3.7936,3.7932,3.7931,3.79,3.79,3.79,3.7915,0,0,0,0,0,0,3.8063,3.8058,3.8056,3.8036,3.8031,3.8013,3.8005,3.8001,3.7993,3.7992,3.7971,3.7967,3.7954,3.7939,3.7935,3.7933,3.793,3.79,3.79,3.79,3.7914,3.7915,3.7916,0,0,0,0,0,3.8064,3.8061,3.8056,3.8052,3.8028,3.8013,3.801,3.7996,3.7994,3.799,3.7977,3.7968,3.7936,3.7938,3.7934,3.7931,3.79,3.79,3.79,3.7914,3.7915,3.7916,0,0,0,0,0,0,3.8079,3.8058,3.8052,3.8043,3.803,3.801,3.8006,3.7998,3.7985,3.7984,3.7967,3.7962,3.795,3.7939,3.7941,3.7922,3.7917,3.7916,3.7929,3.793,3.7931,3.7934,3.7929,0,0,0,0,0,3.8082,3.8073,3.8054,3.8048,3.8042,3.8025,3.8018,3.8009,3.7994,3.7989,3.7974,3.7959,3.7946,3.7938,3.7924,3.7913,3.7907,3.7909,3.791,3.7911,3.791,3.7902,3.7902,3.7899,3.7899,3.7899,0,0,3.8086,3.8074,3.8069,3.805,3.8039,3.8029,3.8021,3.8011,3.8002,3.7987,3.7973,3.7962,3.7944,3.7932,3.7925,3.7922,3.7909,3.7911,3.7911,3.791,3.7902,3.7902,3.7903,3.7899,3.7899,3.7899,0,0,3.809,3.808,3.8073,3.8062,3.8046,3.8035,3.8034,3.8015,3.8007,3.7994,3.7981,3.7971,3.7948,3.7936,3.7927,3.7925,3.7916,3.7921,3.7926,3.7918,3.7918,3.7919,3.7917,3.7917,3.792,3.792,3.792,0,3.8097,3.8083,3.807,3.8061,3.8052,3.8039,3.8031,3.8021,3.8001,3.7995,3.7992,3.7963,3.795,3.7934,3.7934,3.7927,3.7923,3.7923,3.792,3.792,3.792,3.7918,3.7918,3.7921,3.7921,3.7921,3.7921,0,3.8092,3.8083,3.8079,3.8061,3.8052,3.8044,3.8028,3.802,3.8012,3.8001,3.7986,3.797,3.7953,3.7949,3.7939,3.7931,3.7929,3.7923,3.7918,3.7921,3.7919,3.7918,3.7922,3.7922,3.7922,3.7921,0,0,3.8104,3.808,3.8079,3.807,3.8051,3.8043,3.8033,3.8018,3.8011,3.7997,3.7988,3.7969,3.7964,3.7953,3.7942,3.7936,3.7935,3.793,3.793,3.7931,3.7923,3.7928,3.7927,3.7928,3.7928,3.7928,3.7924,0,3.8104,3.8088,3.8076,3.8063,3.8054,3.804,3.8031,3.8018,3.8007,3.7996,3.7983,3.797,3.7964,3.7957,3.7951,3.7936,3.7933,3.7936,3.7918,3.7917,3.7923,3.7926,3.7931,3.7929,3.7924,3.7924,3.7923,0,3.8103,3.8091,3.8078,3.806,3.8055,3.8048,3.8033,3.8023,3.8007,3.7999,3.7987,3.7976,3.7964,3.796,3.7941,3.7944,3.7936,3.7927,3.7927,3.7924,3.7921,3.7924,3.7928,3.7927,3.7922,3.7922,3.7922,0,3.8112,3.8093,3.8083,3.8076,3.8055,3.805,3.804,3.8024,3.8016,3.8002,3.7996,3.798,3.7971,3.7958,3.7942,3.7941,3.7925,3.792,3.7917,3.7918,3.7915,3.7915,3.7917,3.791,3.791,3.791,3.791,0,3.8114,3.8106,3.8087,3.808,3.8071,3.8056,3.8047,3.8036,3.8022,3.8012,3.7999,3.799,3.797,3.7958,3.7945,3.7931,3.7927,3.792,3.7916,3.7921,3.7922,3.7915,3.7914,3.791,3.791,3.791,3.791,0,3.8123,3.8109,3.8097,3.8079,3.8074,3.8067,3.8051,3.8043,3.8031,3.8019,3.8015,3.7996,3.7981,3.7964,3.7943,3.7935,3.7921,3.7917,3.7927,3.7925,3.7923,3.7924,3.7921,3.7919,3.7914,3.7914,3.7914,0,3.8124,3.8118,3.8099,3.8093,3.8084,3.8073,3.8064,3.8049,3.8041,3.8022,3.8016,3.8,3.7987,3.7963,3.7946,3.793,3.7924,3.7925,3.7922,3.7926,3.7924,3.7924,3.7923,3.7925,3.7925,3.7926,3.7926,0,3.8128,3.8122,3.8111,3.8098,3.8089,3.8077,3.8064,3.8059,3.8041,3.8032,3.8017,3.8007,3.7986,3.7969,3.7951,3.7939,3.7929,3.7927,3.7925,3.7929,3.7936,3.7932,3.7929,3.7927,3.7927,3.7927,3.7927,3.7927,3.8133,3.8127,3.8113,3.8101,3.8091,3.8079,3.8071,3.8059,3.8047,3.803,3.8021,3.8006,3.7989,3.7963,3.7952,3.7939,3.7936,3.7933,3.7933,3.7932,3.7933,3.7938,3.7935,3.7935,3.7935,3.7935,3.7935,0,3.8137,3.8127,3.8116,3.81,3.809,3.8083,3.8069,3.8061,3.8048,3.8034,3.8021,3.8004,3.7988,3.797,3.7953,3.7946,3.7941,3.7942,3.7942,3.7939,3.7938,3.7941,3.7946,3.7946,3.7946,3.7946,3.7946,3.7946,3.8137,3.8127,3.8119,3.8102,3.8092,3.8079,3.8071,3.806,3.8049,3.803,3.8018,3.8007,3.7991,3.7972,3.7957,3.7952,3.7946,3.7948,3.7942,3.794,3.7939,3.7939,3.7941,3.7947,3.7947,3.7944,3.7944,3.7944]}]]